User: anonymous   Login
Location: NC_16_and_73
(35.4490°N, 81.0150°W)
Time: 09:47:01
(UTC-04:00)
Language:

Cosmos-2242 - Orbit

View from above orbital plane
View from above orbital plane
View from above satellite
View from above satellite

Ground track
Ground track

The orbit data is extracted from the following two-line orbital elements,

1 22626U 93024A   17173.58298790 +.00000209 +00000-0 +20075-4 0  9992
2 22626 082.5219 036.7363 0020629 101.9220 258.4312 14.87668448306650
Epoch (UTC): 22 June 2017 13:59:30
Eccentricity: 0.0020629
inclination: 82.5219°
perigee height: 591 km
apogee height: 619 km
right ascension of ascending node: 36.7363°
argument of perigee: 101.9220°
revolutions per day: 14.87668448
mean anomaly at epoch: 258.4312°
orbit number at epoch: 30665

The dashed part of the orbit path shows where the satellite is in the earth's shadow,  

DLR